Skip Page Navigation
NASA JPL Caltech
NASA Logo - Jet Propulsion Laboratory + View the NASA Portal
+ Center for Near-Earth Object Studies
JPL Home Earth Solar System Stars & Galaxies Technology
JPL Solar System Dynamics
BODIES ORBITS EPHEMERIDES TOOLS PHYSICAL DATA DISCOVERY FAQ SITE MAP
JPL Small-Body Database Browser
Search: [ help ]  
469239 (2016 JD10)
Classification: Main-belt Asteroid          SPK-ID: 2469239
Ephemeris | Orbit Diagram | Orbital Elements | Mission Design | Physical Parameters | Discovery Circumstances ]

[ show orbit diagram ]
Orbital Elements at Epoch 2459396.5 (2021-Jul-01.0) TDB
Reference: JPL 11 (heliocentric ecliptic J2000)
 Element Value Uncertainty (1-sigma)   Units 
e .04270618218682676 7.2215e-08  
a 2.756677612541436 3.273e-08 au
q 2.638950436189895 2.1279e-07 au
i 1.303913789419767 5.9892e-06 deg
node 91.40838957525312 0.00039352 deg
peri 208.3236303827446 0.00040484 deg
M 337.6000978140056 9.611e-05 deg
tp 2459500.520998178421
(2021-Oct-13.02099818)
0.0004462 TDB
period 1671.773342280298
4.58
2.9773e-05
8.151e-08
d
yr
n .2153401964819945 3.8351e-09 deg/d
Q 2.874404788892977 3.4128e-08 au
  Orbit Determination Parameters
   # obs. used (total)      144  
   data-arc span      7498 days (20.53 yr)  
   first obs. used      1999-10-11  
   last obs. used      2020-04-21  
   planetary ephem.      DE441  
   SB-pert. ephem.      SB441-N16  
   condition code      0  
   norm. resid. RMS      .61574  
   source      ORB  
   producer      Otto Matic  
   solution date      2021-Apr-14 16:18:23  

Additional Information
 Earth MOID = 1.62286 au 
 Jupiter MOID = 2.20395 au 
 T_jup = 3.342 
[ show covariance matrix ]

Ephemeris | Orbit Diagram | Orbital Elements | Mission Design | Physical Parameters | Discovery Circumstances ]

Physical Parameter Table
Parameter Symbol Value Units Sigma Reference Notes
absolute magnitude H 17.04   n/a E2021B25  

469239 (2016 JD10)          Discovered 2004-Nov-10 by Spacewatch at Kitt Peak
Reference: Last Updated: 2016-06-21

Alternate Designations
 2016 JD10 = 2004 VK83 = 2015 BP2 
Ephemeris | Orbit Diagram | Orbital Elements | Mission Design | Physical Parameters | Discovery Circumstances ]
ABOUT SSD CREDITS/AWARDS PRIVACY/COPYRIGHT GLOSSARY LINKS
FirstGov 2021-Aug-05 06:09 UT
(server date/time)  
NASA Home Page
Site Manager:   Ryan S. Park
Webmaster  Alan B. Chamberlin